Tracking 20711 objects as of 30-May-2020
HD Live streaming from Space Station
objects crossing your sky now
Track the CREW DRAGON Mission

FENGYUN 1C DEB

Track FENGYUN 1C DEB now!
10-day predictions


NORAD ID: 32211
Int'l Code: 1999-025CVH
Perigee: 824.2 km
Apogee: 1,027.4 km
Inclination: 98.6 °
Period: 103.4 minutes
Semi major axis: 7296 km
RCS: 0.0093 m2 (small)
Launch date: May 10, 1999
Source: People's Republic of China (PRC)
Launch site: Taiyaun Space Center, China (TSC)

Note: This is SATELLITE DEBRIS
aabbcc
Your satellite tracking list
Your tracking list is empty




NASA's NSSDC Master Catalog

Two Line Element Set (TLE):
1 32211U 99025CVH 20150.26980502 +.00000792 +00000-0 +59156-3 0  9991
2 32211 098.5758 168.8825 0139242 130.1058 290.1287 13.92852757209122
Source of the keplerian elements: AFSPC